COSMO-SKYMED 4

Last updated on Mon Jun 22 2026 00:02:51 GMT+0000 (Coordinated Universal Time)

1 37216U 10060A 26172.49438603 .00000303 00000+0 44605-4 0 9999 2 37216 97.8893 356.0310 0001447 86.3912 273.7467 14.82157004845205
UTC large
Height (km)
Speed (km/s)
/
Latitude / Longitude
Inclination (degrees)
Orbital Period (minutes)
Azimuth
Elevation
Range (km)
Doppler Factor

Next 0 passes for location: London (51.5072 / 0.1276)

No passes found over London.
COSMO-SKYMED 4